SCP
0 0 1 1 1 1 1 1 1 1 1 1 0 0 0 1 1 1 1 1 1 2 2 2 3 4 5 4 4 4 3 3 2 2 2 2 1 1 1 1 1 1 1
0 0 0 0 1 1 1 1 1 1 1 1 1 0 0 1 1 1 1 1 1 1 1 2 3 3 4 4 4 3 3 2 2 2 2 2 2 1 1 1 1 1 1
0 0 0 0 1 1 1 1 1 1 1 1 1 1 0 0 0 1 1 1 0 1 1 1 1 2 3 4 4 4 3 3 2 2 2 2 2 2 1 1 1 1 1
0 0 0 0 1 1 1 1 1 1 1 1 1 1 1 1 1 1 1 1 0 0 0 0 1 1 2 2 3 3 3 3 2 2 2 2 2 2 2 1 1 1 1
0 0 0 0 0 1 1 1 1 1 1 1 1 1 1 1 1 1 1 1 0 0 0 0 0 0 1 1 1 2 2 3 2 2 2 2 1 2 2 2 1 1 1
0 0 0 0 0 0 1 1 1 1 1 1 1 1 1 0 0 0 1 0 0 0 0 0 0 0 0 0 0 1 1 2 2 2 2 1 1 1 1 1 1 1 1
0 0 0 0 0 0 0 1 1 1 1 1 1 1 1 0 0 0 0 0 0 0 0 0 0 0 0 0 0 0 0 1 1 2 2 2 1 1 1 1 1 1 1
0 0 0 0 0 0 1 1 1 1 1 1 1 1 1 1 0 0 0 0 0 0 0 0 0 0 0 0 0 0 0 0 1 1 2 2 1 1 1 1 2 1 1
0 0 0 0 0 0 1 1 1 1 1 1 1 1 1 1 0 0 0 0 0 0 0 0 0 0 0 0 0 0 1 1 1 1 1 1 1 1 1 1 2 1 1
0 0 0 0 0 0 0 1 1 1 1 1 1 0 0 0 0 0 0 0 0 0 0 0 0 0 0 0 0 0 0 1 1 1 1 1 1 1 1 1 1 1 1
0 0 0 0 0 0 0 0 1 1 1 1 0 0 0 0 0 0 0 0 0 0 0 0 0 0 0 0 0 0 0 1 1 1 1 1 1 1 1 1 1 1 1
0 0 0 0 0 0 0 0 0 0 0 0 0 0 0 0 0 0 0 0 0 0 0 0 0 0 0 0 0 0 0 0 1 1 2 2 2 1 1 1 1 2 2
0 0 0 0 0 0 0 0 0 0 0 0 0 0 0 0 0 0 0 0 0 0 0 0 0 0 0 0 0 0 0 0 1 1 2 2 1 1 1 1 1 2 2
0 0 0 0 0 0 0 0 0 0 0 0 0 0 0 0 0 0 0 0 0 0 0 0 0 0 0 0 0 0 0 0 0 1 1 2 1 1 1 1 1 1 1
0 0 0 0 0 0 0 0 0 0 0 0 0 0 0 0 0 0 0 0 0 0 0 0 0 0 0 0 0 0 0 0 0 1 1 1 1 1 1 1 1 1 1
0 0 0 0 0 0 0 0 0 0 0 0 0 0 0 0 0 0 0 0 0 0 0 0 0 0 0 0 0 0 0 0 0 1 1 1 1 1 1 1 1 1 0
0 0 0 0 0 0 0 0 0 0 0 0 0 0 0 0 0 0 0 0 0 0 0 0 0 0 0 0 0 0 0 0 0 1 1 1 1 1 1 1 1 0 0
0 0 0 0 0 0 0 0 0 0 0 0 0 0 0 0 0 0 0 0 0 0 0 0 0 0 0 0 0 0 0 0 0 1 1 1 1 1 1 1 0 0 0
0 0 0 0 0 0 0 0 0 0 0 0 0 0 0 0 0 0 0 0 0 0 0 0 0 0 0 0 0 0 0 0 0 1 1 1 1 1 0 0 0 0 0
0 0 0 0 0 0 0 0 0 0 0 0 0 0 0 0 0 0 0 0 0 0 0 0 0 0 0 0 0 0 0 0 0 0 0 0 0 0 0 0 0 0 0
0 0 0 0 0 0 0 0 0 0 0 0 0 0 0 0 0 0 0 0 0 0 0 0 0 0 0 1 1 1 0 0 0 0 0 0 0 0 0 0 1 0 0
0 0 0 0 0 0 0 0 0 0 0 0 0 0 0 0 0 0 0 0 0 0 0 0 0 0 0 1 1 1 0 0 0 0 0 0 0 1 1 1 1 0 0
0 0 0 0 0 0 0 0 0 0 0 0 0 0 0 0 0 0 0 0 0 0 0 0 0 0 0 0 0 0 0 0 0 0 0 0 1 1 1 1 1 0 0
0 0 0 0 0 0 0 0 0 0 0 0 0 0 0 0 0 0 0 0 0 0 0 0 0 0 0 0 0 0 0 0 0 0 0 0 1 1 1 1 0 0 0
0 0 0 0 0 0 0 0 0 0 0 0 0 0 0 0 0 0 0 0 0 0 0 0 0 0 0 0 0 0 0 0 0 0 0 0 0 0 0 0 0 0 0
0 0 0 0 0 0 0 0 0 0 0 0 0 0 0 0 0 0 0 0 0 0 0 0 0 0 0 0 0 0 0 0 0 0 0 0 0 0 0 0 0 0 0
Wind_Speed
12 12 13 13 13 13 12 13 12 12 12 12 12 12 12 12 11 10 10 9 10 9 9 10 10 10 8 8 8 8 8 8 8 6 5 4 5 5 4 4 4 4 4
14 14 14 14 14 15 15 14 14 14 13 14 13 13 13 13 12 12 12 11 10 10 9 9 9 8 10 9 7 9 8 8 8 8 6 5 7 6 5 4 4 3 2
15 16 15 15 15 15 15 15 14 14 14 14 14 14 14 13 13 13 12 12 11 10 10 9 10 9 10 8 9 9 8 8 8 8 8 5 5 5 5 4 4 2 2
16 17 17 16 16 16 15 15 15 15 15 15 14 14 14 14 14 13 12 12 11 11 10 10 10 10 10 10 9 10 9 9 8 8 8 7 6 6 6 5 4 3 2
17 17 17 17 16 16 16 15 15 15 16 15 15 15 15 13 13 13 12 12 12 12 11 11 11 10 9 8 8 9 9 9 9 9 9 7 7 7 7 6 5 4 3
17 18 17 17 17 16 16 16 16 15 15 15 15 14 15 13 10 9 11 12 12 12 12 12 11 11 12 12 11 11 11 11 11 9 9 9 9 9 7 6 6 5 4
17 17 17 17 16 16 16 16 15 15 14 14 14 14 14 13 9 9 11 12 13 12 12 11 11 10 10 11 12 14 15 15 14 11 11 10 9 9 9 9 8 7 5
17 17 17 16 16 16 15 16 15 14 13 13 13 14 13 13 11 11 11 13 14 13 13 13 13 12 10 10 10 11 12 13 14 13 12 11 9 8 9 8 7 6 5
17 16 16 16 16 16 15 15 14 12 12 12 12 12 13 12 11 12 12 11 12 14 14 14 13 13 10 9 11 12 12 11 11 11 10 7 5 4 5 6 8 8 6
17 17 16 15 15 15 15 14 13 11 11 11 11 11 12 12 10 12 14 11 12 11 11 12 13 13 8 9 12 13 12 11 10 9 10 10 10 10 10 10 10 9 7
16 16 16 15 15 14 13 12 12 11 10 10 10 10 10 10 10 12 14 10 11 10 10 10 9 13 12 11 11 12 10 8 8 8 9 10 10 9 11 11 10 9 9
16 16 15 15 13 12 12 11 10 10 9 8 8 9 8 8 9 10 14 14 11 10 9 9 5 10 11 11 11 9 6 6 7 7 8 8 8 8 8 9 10 8 6
16 16 15 14 12 10 10 10 9 8 7 6 6 6 6 6 6 9 12 13 13 10 8 4 1 6 8 10 12 10 9 9 9 8 8 7 7 7 8 7 8 7 6
15 15 12 11 10 9 7 7 6 6 6 6 6 5 5 5 5 5 7 9 12 11 10 7 8 7 8 6 7 10 10 9 9 8 7 6 6 7 8 8 8 8 7
14 13 12 10 10 9 7 5 6 5 5 6 5 4 4 4 1 1 3 4 5 6 6 6 7 7 8 8 8 8 8 8 9 8 6 6 7 7 7 8 8 9 8
12 11 9 9 8 7 6 5 3 4 4 4 5 5 4 2 1 1 2 1 1 2 4 6 7 8 8 8 8 8 8 8 8 8 8 7 8 8 8 8 8 9 9
12 11 9 8 8 7 6 5 4 2 3 3 3 4 4 3 2 3 4 4 4 5 6 7 7 7 7 7 6 7 7 7 7 7 8 8 8 9 9 9 9 9 9
12 11 9 7 7 6 5 5 4 4 3 1 1 2 2 3 3 5 6 6 5 7 7 6 6 6 5 5 6 6 6 6 7 7 7 8 8 9 9 10 10 11 10
10 8 7 7 6 6 5 5 4 3 3 2 0 3 3 4 4 5 7 6 6 6 6 6 5 5 4 4 5 5 6 6 7 7 7 8 8 9 9 10 10 13 12
9 10 10 8 6 5 5 4 3 3 3 2 1 1 2 3 3 4 5 4 4 4 5 4 4 3 3 4 5 5 5 6 7 7 7 7 8 9 10 12 11 12 10
9 8 9 7 6 5 5 5 3 2 2 1 2 3 3 1 1 2 2 2 2 2 3 3 3 3 3 3 4 6 7 6 6 7 7 7 8 9 9 10 10 10 10
8 8 7 6 5 5 6 5 4 3 3 3 2 2 1 2 1 1 1 1 1 1 1 2 2 2 2 3 5 6 6 6 7 7 8 8 9 10 10 10 11 10 11
9 9 7 6 5 4 4 4 4 4 4 4 3 2 1 1 1 1 1 1 1 1 2 2 2 3 3 3 4 5 6 7 7 8 9 9 9 10 10 11 12 12 12
9 8 7 6 5 5 5 4 4 4 4 4 3 3 2 2 2 2 2 1 1 1 2 2 3 5 5 4 5 6 7 7 8 8 10 10 10 10 10 10 11 13 12
9 8 7 6 6 5 5 5 5 4 4 4 3 3 3 2 2 2 2 3 3 3 3 3 4 5 6 7 7 8 7 6 6 8 9 8 11 11 11 12 11 12 12
9 9 7 7 6 6 5 5 5 5 4 4 4 3 3 3 3 3 3 3 4 4 4 5 6 7 8 7 9 10 8 6 5 3 6 9 10 11 12 11 13 12 13
Wind_Direction
293 290 287 283 280 276 270 268 268 266 266 261 257 257 257 257 255 252 255 255 249 250 252 250 246 244 239 235 229 229 230 236 243 239 224 201 208 236 218 228 226 231 197
299 295 290 287 284 280 275 271 269 266 263 260 257 255 253 253 252 251 251 251 248 247 247 248 250 247 240 239 236 232 230 231 238 241 234 216 212 219 222 228 229 228 207
304 300 296 292 288 284 281 278 273 270 265 262 258 254 252 253 252 249 249 251 248 246 245 243 242 241 243 241 237 235 233 228 228 233 234 223 218 213 209 213 211 201 187
305 301 299 296 292 287 284 281 276 271 267 263 258 253 251 250 249 247 244 244 247 246 242 242 243 238 236 238 241 239 237 237 229 230 230 220 214 208 209 209 196 179 171
303 299 297 295 292 289 285 282 279 275 270 265 261 256 251 248 243 242 242 242 243 245 242 239 238 237 241 239 245 242 236 234 230 226 225 219 214 204 209 205 196 168 152
302 300 298 296 293 290 286 283 279 274 272 269 263 259 254 250 236 220 237 249 246 243 242 240 239 226 226 222 233 247 251 244 238 233 230 223 218 211 206 203 188 180 175
302 300 299 297 295 291 289 286 283 279 274 268 263 257 255 252 234 212 222 245 249 245 243 241 242 236 222 230 223 225 236 241 245 246 245 238 224 213 204 201 197 197 179
304 302 301 299 296 293 289 285 282 279 275 271 265 258 254 249 221 212 216 237 246 245 243 240 240 245 237 235 240 236 235 229 226 230 239 242 240 222 208 207 195 173 140
307 306 304 302 298 295 290 287 285 282 276 270 264 257 252 249 223 207 211 237 238 240 240 239 239 239 230 212 236 243 242 239 225 227 239 247 250 217 204 194 180 173 165
311 308 306 302 299 295 292 289 287 283 276 272 265 257 250 247 229 206 207 234 238 238 234 237 233 236 228 197 231 239 239 236 229 212 215 222 223 208 199 205 193 183 168
313 308 305 303 299 295 292 291 289 285 278 269 265 260 251 245 230 205 204 232 238 236 237 234 229 197 204 206 228 243 242 241 233 227 221 213 210 204 201 202 202 192 182
313 310 308 306 302 301 298 293 290 285 280 271 264 260 252 242 235 211 199 218 243 242 242 242 224 167 184 200 218 233 225 227 233 227 223 213 204 198 197 196 193 192 194
313 312 311 310 308 304 300 299 297 288 279 275 264 257 254 246 222 200 200 211 222 237 245 247 168 162 185 206 220 217 213 221 222 221 218 213 205 194 181 175 167 157 142
315 314 315 313 311 310 306 304 299 294 288 282 274 271 264 255 239 209 204 204 208 220 232 206 187 194 223 237 201 202 216 221 218 218 212 206 191 182 175 166 160 152 143
316 316 315 312 312 309 308 307 304 305 303 293 291 287 279 267 279 323 247 223 214 210 213 217 214 203 209 213 214 210 208 207 213 216 209 199 185 178 171 163 159 156 153
317 316 316 316 316 315 314 312 277 273 287 279 280 288 286 278 274 228 227 242 197 186 220 223 220 216 215 213 210 205 204 206 207 205 201 194 184 174 167 163 162 160 157
317 316 314 315 316 316 319 320 322 282 234 244 265 269 268 283 245 219 205 196 196 196 224 230 229 225 221 215 208 204 201 200 201 201 194 187 178 173 167 165 165 161 160
320 317 314 313 315 316 319 320 319 316 307 259 193 198 219 231 216 197 182 183 194 209 230 236 234 228 219 211 203 201 194 193 195 193 186 180 176 171 167 165 164 162 158
322 324 321 320 319 322 323 324 326 327 330 338 70 137 167 179 179 187 197 220 217 209 222 231 233 227 212 198 193 193 189 189 189 184 178 175 174 168 165 163 161 159 157
324 326 322 320 321 330 329 330 338 338 342 348 12 59 158 193 186 180 208 221 223 216 216 223 223 216 202 186 180 179 178 178 177 175 171 172 169 162 160 160 158 158 158
324 326 320 320 331 339 335 335 344 348 349 3 39 53 339 273 189 182 203 211 217 215 208 212 210 202 183 169 171 172 168 167 167 164 162 162 159 156 156 154 154 155 157
324 326 331 335 339 348 341 345 358 10 20 35 61 113 243 268 132 144 183 194 211 198 195 205 198 179 176 170 166 163 157 155 156 156 153 150 148 150 150 151 154 154 153
330 331 338 344 351 347 338 2 12 15 27 33 34 51 72 46 76 89 93 130 176 193 187 188 176 154 157 163 161 158 152 154 154 151 147 146 147 149 151 152 154 152 154
335 340 346 351 360 5 6 9 19 26 35 43 45 47 51 44 70 86 88 107 132 140 139 135 127 131 143 151 156 153 147 146 148 149 149 146 147 146 146 148 152 152 149
348 352 356 1 6 11 9 12 21 31 39 56 60 57 60 64 72 86 99 102 105 102 98 107 120 131 140 140 133 121 105 108 132 144 152 150 148 149 149 150 151 152 153
353 358 2 5 8 12 14 19 28 36 43 53 61 62 61 65 70 78 86 94 99 102 106 107 109 115 125 122 113 108 106 109 114 140 158 150 150 150 151 151 152 155 157